This is the latest recevied weather packets stored in our database for station/object CT2IRJ-11. If no packets are shown the sender has not sent any weather packets the latest 10 day(s).
| Time | Temp. | Humidity | Pressure | Rain* | Wind** | Luminosity | Snow |
|---|---|---|---|---|---|---|---|
| 1777314510 | 26.67° C | 51% | 1010.5 hPa | 0 mm | - | 35 W/m² | - |
| 1777314210 | 27.78° C | 50% | 1010.2 hPa | 0 mm | - | 37 W/m² | - |
| 1777313910 | 27.78° C | 50% | 1010.2 hPa | 0 mm | - | 46 W/m² | - |
| 1777313609 | 28.33° C | 49% | 1009.8 hPa | 0 mm | - | 53 W/m² | - |
| 1777313312 | 28.33° C | 49% | 1009.8 hPa | 0 mm | - | 59 W/m² | - |
| 1777313010 | 28.89° C | 48% | 1010.2 hPa | 0 mm | - | 82 W/m² | - |
| 1777312710 | 29.44° C | 47% | 1009.8 hPa | 0 mm | - | 86 W/m² | - |
| 1777312410 | 30° C | 46% | 1010.2 hPa | 0 mm | - | 112 W/m² | - |
| 1777312110 | 29.44° C | 43% | 1010.2 hPa | 0 mm | - | 124 W/m² | - |
| 1777311813 | 31.67° C | 33% | 1009.8 hPa | 0 mm | - | 139 W/m² | - |
| 1777311509 | 31.11° C | 27% | 1010.2 hPa | 0 mm | - | 105 W/m² | - |
| 1777311210 | 31.67° C | 26% | 1009.8 hPa | 0 mm | - | 105 W/m² | - |
| 1777310910 | 31.11° C | 25% | 1009.8 hPa | 0 mm | - | 187 W/m² | - |
| 1777310610 | 31.11° C | 25% | 1009.8 hPa | 0 mm | - | 204 W/m² | - |
| 1777310310 | 31.67° C | 24% | 1009.8 hPa | 0 mm | - | 227 W/m² | - |
| 1777310010 | 32.22° C | 24% | 1009.8 hPa | 0 mm | - | 228 W/m² | - |
| 1777309710 | 32.22° C | 24% | 1009.8 hPa | 0 mm | - | 243 W/m² | - |
| 1777309410 | 31.67° C | 24% | 1010.2 hPa | 0 mm | - | 263 W/m² | - |
| 1777309110 | 32.22° C | 24% | 1010.2 hPa | 0 mm | - | 260 W/m² | - |
| 1777308810 | 33.33° C | 24% | 1010.2 hPa | 0 mm | - | 269 W/m² | - |
| 1777308509 | 33.89° C | 23% | 1009.8 hPa | 0 mm | - | 290 W/m² | - |
| 1777308209 | 33.89° C | 22% | 1010.2 hPa | 0 mm | - | 298 W/m² | - |
| 1777307910 | 32.78° C | 22% | 1010.2 hPa | 0 mm | - | 308 W/m² | - |
| 1777307610 | 32.78° C | 21% | 1010.2 hPa | 0 mm | - | 304 W/m² | - |
| 1777307310 | 32.78° C | 21% | 1010.5 hPa | 0 mm | - | 317 W/m² | - |
* Rain latest hour (hover to see other rain measurements)
** Current wind speed in m/s (hover to see current wind gust speed)